Weather History for KAJG - March, 2013

Change the Weather History Date:

Friday, March 8, 2013

  Actual Average (KLWV) Record (KLWV)
Temperature  
Mean Temperature 40 °F 42 °F  
Max Temperature 51 °F 52 °F 73 °F (2002)
Min Temperature 30 °F 32 °F 19 °F (2008)
Degree Days  
Heating Degree Days 24 23  
Month to date heating degree days 191  
Since 1 July heating degree days 3866  
Cooling Degree Days 0 0  
Month to date cooling degree days 0  
Year to date cooling degree days 0  
Moisture  
Dew Point 31 °F    
Average Humidity 72    
Maximum Humidity 100    
Minimum Humidity 47    
Precipitation  
Precipitation 0.00 in 0.08 in 1.44 in (2006)
Month to date precipitation 0.64  
Year to date precipitation 5.03  
Sea Level Pressure  
Sea Level Pressure 30.39 in    
Wind  
Wind Speed 4 mph (East)    
Max Wind Speed 13 mph    
Max Gust Speed 16 mph    
Visibility 9 miles    
Events      
T = Trace of Precipitation, MM = Missing Value Source: NWS Daily Summary

Daily Weather History Graph

Daily Weather History Graph

Search for Another Location

Airport or City:

Trip Planner

Search our weather history database for the weather conditions in past years. The results will help you decide how hot, cold, wet, or windy it might be!

Date:

Astronomy

Mar. 08, 2013 Rise Set
Actual Time 6:12 AM CST 5:51 PM CST
Civil Twilight 5:45 AM CST 6:17 PM CST
Nautical Twilight 5:15 AM CST 6:48 PM CST
Astronomical Twilight 4:44 AM CST 7:19 PM CST
Moon 3:54 AM CST (3/8) 2:47 PM CST (3/8)
Length of Visible Light 12h 31m
Length of Day
11h 38m
Waning Crescent, 11% of the Moon is Illuminated
Mar 8
Waning Crescent
Mar 11
New
Mar 19
First Quarter
Mar 27
Full
Apr 2
Last Quarter

Hourly Weather History & Observations

Time (CST) Temp. Windchill Dew Point Humidity Pressure Visibility Wind Dir Wind Speed Gust Speed Precip Events Conditions
12:15 AM 33.8 °F - 30.2 °F 87% 30.40 in 10.0 mi Calm Calm - N/A   Scattered Clouds
12:35 AM 32.0 °F - 30.2 °F 93% 30.41 in 10.0 mi Calm Calm - N/A   Clear
12:55 AM 32.0 °F - 30.2 °F 93% 30.41 in 10.0 mi Calm Calm - N/A   Clear
1:15 AM 32.0 °F - 30.2 °F 93% 30.41 in 7.0 mi Calm Calm - N/A   Clear
1:35 AM 32.0 °F - 30.2 °F 93% 30.42 in 7.0 mi Calm Calm - N/A   Scattered Clouds
1:55 AM 32.0 °F - 30.2 °F 93% 30.42 in 7.0 mi Calm Calm - N/A   Mostly Cloudy
2:15 AM 32.0 °F - 30.2 °F 93% 30.42 in 7.0 mi Calm Calm - N/A   Overcast
2:35 AM 32.0 °F - 30.2 °F 93% 30.42 in 7.0 mi Calm Calm - N/A   Mostly Cloudy
2:55 AM 32.0 °F - 28.4 °F 87% 30.41 in 10.0 mi Calm Calm - N/A   Scattered Clouds
3:15 AM 32.0 °F - 28.4 °F 87% 30.41 in 10.0 mi Calm Calm - N/A   Clear
3:35 AM 32.0 °F - 28.4 °F 87% 30.41 in 10.0 mi Calm Calm - N/A   Clear
3:55 AM 32.0 °F 27.5 °F 28.4 °F 87% 30.42 in 10.0 mi NE 4.6 mph - N/A   Clear
4:15 AM 32.0 °F 26.4 °F 28.4 °F 87% 30.42 in 10.0 mi NE 5.8 mph - N/A   Clear
4:35 AM 32.0 °F 27.5 °F 28.4 °F 87% 30.42 in 7.0 mi NE 4.6 mph - N/A   Clear
4:55 AM 32.0 °F - 28.4 °F 87% 30.42 in 7.0 mi Calm Calm - N/A   Clear
5:15 AM 30.2 °F - 28.4 °F 93% 30.43 in 7.0 mi Calm Calm - N/A   Clear
5:35 AM 30.2 °F - 28.4 °F 93% 30.44 in 7.0 mi Calm Calm - N/A   Clear
5:55 AM 32.0 °F - 30.2 °F 93% 30.43 in 7.0 mi Calm Calm - N/A   Clear
6:15 AM 30.2 °F - 28.4 °F 93% 30.44 in 5.0 mi Calm Calm - N/A   Clear
6:35 AM 30.2 °F - 28.4 °F 93% 30.46 in 4.0 mi Calm Calm - N/A   Clear
6:55 AM 32.0 °F - 30.2 °F 93% 30.46 in 4.0 mi Calm Calm - N/A   Clear
7:15 AM 32.0 °F - 30.2 °F 93% 30.46 in 5.0 mi Calm Calm - N/A   Clear
7:35 AM 32.0 °F - 32.0 °F 100% 30.46 in 5.0 mi Calm Calm - N/A   Clear
7:55 AM 33.8 °F - 32.0 °F 93% 30.46 in 7.0 mi Calm Calm - N/A   Clear
8:15 AM 35.6 °F 29.9 °F 30.2 °F 81% 30.47 in 7.0 mi East 6.9 mph - N/A   Clear
8:35 AM 37.4 °F 30.3 °F 30.2 °F 75% 30.47 in 10.0 mi East 10.4 mph - N/A   Clear
8:55 AM 37.4 °F 30.8 °F 30.2 °F 75% 30.46 in 10.0 mi East 9.2 mph - N/A   Clear
9:15 AM 39.2 °F 32.5 °F 30.2 °F 70% 30.46 in 10.0 mi East 10.4 mph - N/A   Clear
9:35 AM 41.0 °F 34.3 °F 30.2 °F 65% 30.47 in 10.0 mi ESE 11.5 mph - N/A   Clear
9:55 AM 41.0 °F 35.2 °F 30.2 °F 65% 30.48 in 10.0 mi East 9.2 mph - N/A   Clear
10:15 AM 41.0 °F 35.8 °F 32.0 °F 70% 30.48 in 10.0 mi SE 8.1 mph - N/A   Clear
10:35 AM 41.0 °F 39.0 °F 30.2 °F 65% 30.47 in 10.0 mi East 3.5 mph - N/A   Clear
10:55 AM 42.8 °F 41.1 °F 30.2 °F 61% 30.47 in 10.0 mi East 3.5 mph - N/A   Clear
11:15 AM 42.8 °F 37.5 °F 32.0 °F 66% 30.47 in 10.0 mi ESE 9.2 mph - N/A   Clear
11:35 AM 44.6 °F 40.7 °F 30.2 °F 57% 30.46 in 10.0 mi East 6.9 mph - N/A   Clear
11:55 AM 44.6 °F 40.7 °F 32.0 °F 61% 30.45 in 10.0 mi SE 6.9 mph - N/A   Clear
12:15 PM 44.6 °F 40.2 °F 32.0 °F 61% 30.44 in 10.0 mi SE 8.1 mph - N/A   Clear
12:35 PM 46.4 °F 43.5 °F 32.0 °F 57% 30.43 in 10.0 mi ESE 5.8 mph - N/A   Clear
12:55 PM 46.4 °F 42.4 °F 32.0 °F 57% 30.40 in 10.0 mi East 8.1 mph - N/A   Clear
1:15 PM 46.4 °F 41.5 °F 32.0 °F 57% 30.38 in 10.0 mi East 10.4 mph 16.1 mph N/A   Clear
1:35 PM 48.2 °F - 32.0 °F 54% 30.37 in 10.0 mi ESE 12.7 mph - N/A   Clear
1:55 PM 48.2 °F - 32.0 °F 54% 30.37 in 10.0 mi East 5.8 mph - N/A   Clear
2:15 PM 50.0 °F - 32.0 °F 50% 30.37 in 10.0 mi ESE 10.4 mph - N/A   Clear
2:35 PM 50.0 °F - 30.2 °F 47% 30.36 in 10.0 mi East 6.9 mph - N/A   Clear
2:55 PM 50.0 °F - 32.0 °F 50% 30.35 in 10.0 mi East 8.1 mph - N/A   Clear
3:15 PM 50.0 °F - 32.0 °F 50% 30.35 in 10.0 mi East 9.2 mph - N/A   Clear
3:35 PM 50.0 °F - 32.0 °F 50% 30.35 in 10.0 mi ENE 6.9 mph - N/A   Clear
3:55 PM 51.8 °F - 32.0 °F 47% 30.33 in 10.0 mi East 9.2 mph - N/A   Clear
4:15 PM 51.8 °F - 32.0 °F 47% 30.34 in 10.0 mi East 8.1 mph - N/A   Clear
4:35 PM 50.0 °F - 32.0 °F 50% 30.34 in 10.0 mi East 8.1 mph - N/A   Clear
4:55 PM 50.0 °F - 32.0 °F 50% 30.35 in 10.0 mi SE 5.8 mph - N/A   Clear
5:15 PM 50.0 °F - 32.0 °F 50% 30.34 in 10.0 mi ESE 5.8 mph - N/A   Clear
5:35 PM 46.4 °F 43.5 °F 33.8 °F 62% 30.34 in 10.0 mi East 5.8 mph - N/A   Clear
5:55 PM 44.6 °F 41.4 °F 32.0 °F 61% 30.34 in 10.0 mi East 5.8 mph - N/A   Clear
6:15 PM 44.6 °F - 32.0 °F 61% 30.34 in 10.0 mi Calm Calm - N/A   Clear
6:35 PM 46.4 °F 45.2 °F 30.2 °F 53% 30.34 in 10.0 mi ENE 3.5 mph - N/A   Clear
6:55 PM 44.6 °F 41.4 °F 32.0 °F 61% 30.34 in 10.0 mi ENE 5.8 mph - N/A   Clear
7:15 PM 42.8 °F 39.3 °F 32.0 °F 66% 30.34 in 10.0 mi NE 5.8 mph - N/A   Clear
7:35 PM 41.0 °F 35.8 °F 32.0 °F 70% 30.34 in 10.0 mi ENE 8.1 mph - N/A   Clear
7:55 PM 39.2 °F 33.6 °F 32.0 °F 75% 30.34 in 10.0 mi ENE 8.1 mph - N/A   Clear
8:15 PM 39.2 °F 33.6 °F 32.0 °F 75% 30.34 in 10.0 mi East 8.1 mph - N/A   Clear
8:35 PM 42.8 °F 36.6 °F 32.0 °F 66% 30.32 in 10.0 mi East 11.5 mph - N/A   Clear
8:55 PM 42.8 °F 37.0 °F 32.0 °F 66% 30.33 in 10.0 mi East 10.4 mph - N/A   Clear
9:15 PM 41.0 °F 35.2 °F 32.0 °F 70% 30.33 in 10.0 mi East 9.2 mph - N/A   Clear
9:35 PM 41.0 °F 35.2 °F 32.0 °F 70% 30.32 in 10.0 mi East 9.2 mph - N/A   Clear
9:55 PM 41.0 °F 35.2 °F 32.0 °F 70% 30.32 in 10.0 mi East 9.2 mph - N/A   Clear
10:15 PM 41.0 °F 36.4 °F 32.0 °F 70% 30.31 in 10.0 mi East 6.9 mph - N/A   Clear
10:35 PM 41.0 °F 38.0 °F 32.0 °F 70% 30.31 in 10.0 mi ESE 4.6 mph - N/A   Clear
10:55 PM 41.0 °F 36.4 °F 32.0 °F 70% 30.31 in 10.0 mi East 6.9 mph - N/A   Clear
11:15 PM 39.2 °F 35.0 °F 32.0 °F 75% 30.31 in 10.0 mi East 5.8 mph - N/A   Clear
11:35 PM 37.4 °F 32.8 °F 32.0 °F 81% 30.31 in 10.0 mi East 5.8 mph - N/A   Clear
11:55 PM 39.2 °F 33.0 °F 32.0 °F 75% 30.29 in 10.0 mi East 9.2 mph - N/A   Clear